Year,Month,Day,Hour,Minute,Value (Times are PST for windspeed in km/hr)
2017,05,05,00,00,1.80
2017,05,05,00,01,0.60
2017,05,05,00,02,1.50
2017,05,05,00,03,1.20
2017,05,05,00,04,0.10
2017,05,05,00,05,0.00
2017,05,05,00,06,0.00
2017,05,05,00,07,0.00
2017,05,05,00,08,0.00
2017,05,05,00,09,0.00
2017,05,05,00,10,0.00
2017,05,05,00,11,0.00
2017,05,05,00,12,0.00
2017,05,05,00,13,0.00
2017,05,05,00,14,0.00
2017,05,05,00,15,0.00
2017,05,05,00,16,0.00
2017,05,05,00,17,0.00
2017,05,05,00,18,0.00
2017,05,05,00,19,0.00
2017,05,05,00,20,0.00
2017,05,05,00,21,0.00
2017,05,05,00,22,0.00
2017,05,05,00,23,1.30
2017,05,05,00,24,3.10
2017,05,05,00,25,2.40
2017,05,05,00,26,2.20
2017,05,05,00,27,1.70
2017,05,05,00,28,2.10
2017,05,05,00,29,2.00
2017,05,05,00,30,1.60
2017,05,05,00,31,1.10
2017,05,05,00,32,1.10
2017,05,05,00,33,1.60
2017,05,05,00,34,1.90
2017,05,05,00,35,2.10
2017,05,05,00,36,1.50
2017,05,05,00,37,0.70
2017,05,05,00,38,1.70
2017,05,05,00,39,2.60
2017,05,05,00,40,1.20
2017,05,05,00,41,0.00
2017,05,05,00,42,0.00
2017,05,05,00,43,0.00
2017,05,05,00,44,0.00
2017,05,05,00,45,3.00
2017,05,05,00,46,5.00
2017,05,05,00,47,5.60
2017,05,05,00,48,5.40
2017,05,05,00,49,6.10
2017,05,05,00,50,6.80
2017,05,05,00,51,7.30
2017,05,05,00,52,5.70
2017,05,05,00,53,6.60
2017,05,05,00,54,5.00
2017,05,05,00,55,5.10
2017,05,05,00,56,2.70
2017,05,05,00,57,0.50
2017,05,05,00,58,0.60
2017,05,05,00,59,0.00
2017,05,05,01,00,1.60
2017,05,05,01,01,2.50
2017,05,05,01,02,2.10
2017,05,05,01,03,2.90
2017,05,05,01,04,4.30
2017,05,05,01,05,4.00
2017,05,05,01,06,3.80
2017,05,05,01,07,2.90
2017,05,05,01,08,6.00
2017,05,05,01,09,6.40
2017,05,05,01,10,6.60
2017,05,05,01,11,7.30
2017,05,05,01,12,4.80
2017,05,05,01,13,4.90
2017,05,05,01,14,5.90
2017,05,05,01,15,3.90
2017,05,05,01,16,3.20
2017,05,05,01,17,6.00
2017,05,05,01,18,4.70
2017,05,05,01,19,3.90
2017,05,05,01,20,5.10
2017,05,05,01,21,4.70
2017,05,05,01,22,4.30
2017,05,05,01,23,5.40
2017,05,05,01,24,6.40
2017,05,05,01,25,5.40
2017,05,05,01,26,5.20
2017,05,05,01,27,4.70
2017,05,05,01,28,4.60
2017,05,05,01,29,3.90
2017,05,05,01,30,2.70
2017,05,05,01,31,4.20
2017,05,05,01,32,3.90
2017,05,05,01,33,3.20
2017,05,05,01,34,2.60
2017,05,05,01,35,4.30
2017,05,05,01,36,5.10
2017,05,05,01,37,4.50
2017,05,05,01,38,3.50
2017,05,05,01,39,5.30
2017,05,05,01,40,5.90
2017,05,05,01,41,3.60
2017,05,05,01,42,3.90
2017,05,05,01,43,5.10
2017,05,05,01,44,5.60
2017,05,05,01,45,4.10
2017,05,05,01,46,5.30
2017,05,05,01,47,6.50
2017,05,05,01,48,6.60
2017,05,05,01,49,8.80
2017,05,05,01,50,5.30
2017,05,05,01,51,6.60
2017,05,05,01,52,7.80
2017,05,05,01,53,8.10
2017,05,05,01,54,8.20
2017,05,05,01,55,8.90
2017,05,05,01,56,5.60
2017,05,05,01,57,6.50
2017,05,05,01,58,7.10
2017,05,05,01,59,8.70
2017,05,05,02,00,8.50
2017,05,05,02,01,10.90
2017,05,05,02,02,10.30
2017,05,05,02,03,7.90
2017,05,05,02,04,6.90
2017,05,05,02,05,6.60
2017,05,05,02,06,8.30
2017,05,05,02,07,8.50
2017,05,05,02,08,8.00
2017,05,05,02,09,7.10
2017,05,05,02,10,8.10
2017,05,05,02,11,7.70
2017,05,05,02,12,8.00
2017,05,05,02,13,7.00
2017,05,05,02,14,6.90
2017,05,05,02,15,6.90
2017,05,05,02,16,8.20
2017,05,05,02,17,7.70
2017,05,05,02,18,7.40
2017,05,05,02,19,7.00
2017,05,05,02,20,3.70
2017,05,05,02,21,6.50
2017,05,05,02,22,6.80
2017,05,05,02,23,5.90
2017,05,05,02,24,6.60
2017,05,05,02,25,4.80
2017,05,05,02,26,5.60
2017,05,05,02,27,6.20
2017,05,05,02,28,5.80
2017,05,05,02,29,3.10
2017,05,05,02,30,2.80
2017,05,05,02,31,4.60
2017,05,05,02,32,4.30
2017,05,05,02,33,3.00
2017,05,05,02,34,3.00
2017,05,05,02,35,2.30
2017,05,05,02,36,2.70
2017,05,05,02,37,3.70
2017,05,05,02,38,6.40
2017,05,05,02,39,2.90
2017,05,05,02,40,6.20
2017,05,05,02,41,5.60
2017,05,05,02,42,4.70
2017,05,05,02,43,4.30
2017,05,05,02,44,1.30
2017,05,05,02,45,3.80
2017,05,05,02,46,5.40
2017,05,05,02,47,6.60
2017,05,05,02,48,5.60
2017,05,05,02,49,4.20
2017,05,05,02,50,7.80
2017,05,05,02,51,5.70
2017,05,05,02,52,6.00
2017,05,05,02,53,5.80
2017,05,05,02,54,7.20
2017,05,05,02,55,8.40
2017,05,05,02,56,8.50
2017,05,05,02,57,12.50
2017,05,05,02,58,8.30
2017,05,05,02,59,10.40
2017,05,05,03,00,10.30
2017,05,05,03,01,15.20
2017,05,05,03,02,13.50
2017,05,05,03,03,14.20
2017,05,05,03,04,9.60
2017,05,05,03,05,13.30
2017,05,05,03,06,16.10
2017,05,05,03,07,12.30
2017,05,05,03,08,14.60
2017,05,05,03,09,17.80
2017,05,05,03,10,10.90
2017,05,05,03,11,7.90
2017,05,05,03,12,16.20
2017,05,05,03,13,18.30
2017,05,05,03,14,8.00
2017,05,05,03,15,13.70
2017,05,05,03,16,12.40
2017,05,05,03,17,9.00
2017,05,05,03,18,13.80
2017,05,05,03,19,15.10
2017,05,05,03,20,17.20
2017,05,05,03,21,12.20
2017,05,05,03,22,13.30
2017,05,05,03,23,8.50
2017,05,05,03,24,8.80
2017,05,05,03,25,12.00
2017,05,05,03,26,9.40
2017,05,05,03,27,9.10
2017,05,05,03,28,15.20
2017,05,05,03,29,7.90
2017,05,05,03,30,6.40
2017,05,05,03,31,11.10
2017,05,05,03,32,16.40
2017,05,05,03,33,16.60
2017,05,05,03,34,9.50
2017,05,05,03,35,10.90
2017,05,05,03,36,13.10
2017,05,05,03,37,13.00
2017,05,05,03,38,12.20
2017,05,05,03,39,19.10
2017,05,05,03,40,18.30
2017,05,05,03,41,12.30
2017,05,05,03,42,12.80
2017,05,05,03,43,12.00
2017,05,05,03,44,17.10
2017,05,05,03,45,15.60
2017,05,05,03,46,11.90
2017,05,05,03,47,10.00
2017,05,05,03,48,15.00
2017,05,05,03,49,11.70
2017,05,05,03,50,8.20
2017,05,05,03,51,14.90
2017,05,05,03,52,8.40
2017,05,05,03,53,17.30
2017,05,05,03,54,9.70
2017,05,05,03,55,11.70
2017,05,05,03,56,7.40
2017,05,05,03,57,15.60
2017,05,05,03,58,9.60
2017,05,05,03,59,11.00
2017,05,05,04,00,10.90
2017,05,05,04,01,8.00
2017,05,05,04,02,9.30
2017,05,05,04,03,7.30
2017,05,05,04,04,10.70
2017,05,05,04,05,9.50
2017,05,05,04,06,10.90
2017,05,05,04,07,8.60
2017,05,05,04,08,7.30
2017,05,05,04,09,9.40
2017,05,05,04,10,16.80
2017,05,05,04,11,13.80
2017,05,05,04,12,14.50
2017,05,05,04,13,17.90
2017,05,05,04,14,13.60
2017,05,05,04,15,10.70
2017,05,05,04,16,12.20
2017,05,05,04,17,7.40
2017,05,05,04,18,8.00
2017,05,05,04,19,11.00
2017,05,05,04,20,19.20
2017,05,05,04,21,17.00
2017,05,05,04,22,23.30
2017,05,05,04,23,20.70
2017,05,05,04,24,15.30
2017,05,05,04,25,15.50
2017,05,05,04,26,20.60
2017,05,05,04,27,18.30
2017,05,05,04,28,14.70
2017,05,05,04,29,13.40
2017,05,05,04,30,23.20
2017,05,05,04,31,20.20
2017,05,05,04,32,18.00
2017,05,05,04,33,19.00
2017,05,05,04,34,15.20
2017,05,05,04,35,15.90
2017,05,05,04,36,14.70
2017,05,05,04,37,19.40
2017,05,05,04,38,18.20
2017,05,05,04,39,16.30
2017,05,05,04,40,15.40
2017,05,05,04,41,18.00
2017,05,05,04,42,14.20
2017,05,05,04,43,12.40
2017,05,05,04,44,10.80
2017,05,05,04,45,10.40
2017,05,05,04,46,15.30
2017,05,05,04,47,11.60
2017,05,05,04,48,14.50
2017,05,05,04,49,12.30
2017,05,05,04,50,8.80
2017,05,05,04,51,8.60
2017,05,05,04,52,8.40
2017,05,05,04,53,13.20
2017,05,05,04,54,17.10
2017,05,05,04,55,14.00
2017,05,05,04,56,14.80
2017,05,05,04,57,10.40
2017,05,05,04,58,17.10
2017,05,05,04,59,17.20
2017,05,05,05,00,16.30
2017,05,05,05,01,13.90
2017,05,05,05,02,14.50
2017,05,05,05,03,16.90
2017,05,05,05,04,13.00
2017,05,05,05,05,11.50
2017,05,05,05,06,14.60
2017,05,05,05,07,17.90
2017,05,05,05,08,18.40
2017,05,05,05,09,14.40
2017,05,05,05,10,10.30
2017,05,05,05,11,10.20
2017,05,05,05,12,11.20
2017,05,05,05,13,5.20
2017,05,05,05,14,9.50
2017,05,05,05,15,8.70
2017,05,05,05,16,5.00
2017,05,05,05,17,3.00
2017,05,05,05,18,1.00
2017,05,05,05,19,0.10
2017,05,05,05,20,1.10
2017,05,05,05,21,0.30
2017,05,05,05,22,0.50
2017,05,05,05,23,4.00
2017,05,05,05,24,3.40
2017,05,05,05,25,5.80
2017,05,05,05,26,4.00
2017,05,05,05,27,3.50
2017,05,05,05,28,4.30
2017,05,05,05,29,4.10
2017,05,05,05,30,3.50
2017,05,05,05,31,0.80
2017,05,05,05,32,0.00
2017,05,05,05,33,4.70
2017,05,05,05,34,5.10
2017,05,05,05,35,2.00
2017,05,05,05,36,3.00
2017,05,05,05,37,6.80
2017,05,05,05,38,5.80
2017,05,05,05,39,12.40
2017,05,05,05,40,8.90
2017,05,05,05,41,5.90
2017,05,05,05,42,8.00
2017,05,05,05,43,4.70
2017,05,05,05,44,9.00
2017,05,05,05,45,7.10
2017,05,05,05,46,14.60
2017,05,05,05,47,11.50
2017,05,05,05,48,13.80
2017,05,05,05,49,19.40
2017,05,05,05,50,11.40
2017,05,05,05,51,6.90
2017,05,05,05,52,11.00
2017,05,05,05,53,9.60
2017,05,05,05,54,8.60
2017,05,05,05,55,5.80
2017,05,05,05,56,3.60
2017,05,05,05,57,13.70
2017,05,05,05,58,16.90
2017,05,05,05,59,13.20
2017,05,05,06,00,10.10
2017,05,05,06,01,14.60
2017,05,05,06,02,15.30
2017,05,05,06,03,8.20
2017,05,05,06,04,10.20
2017,05,05,06,05,19.10
2017,05,05,06,06,19.90
2017,05,05,06,07,21.60
2017,05,05,06,08,19.90
2017,05,05,06,09,19.40
2017,05,05,06,10,17.00
2017,05,05,06,11,23.10
2017,05,05,06,12,21.40
2017,05,05,06,13,19.20
2017,05,05,06,14,14.30
2017,05,05,06,15,14.00
2017,05,05,06,16,20.00
2017,05,05,06,17,13.90
2017,05,05,06,18,14.50
2017,05,05,06,19,16.10
2017,05,05,06,20,21.60
2017,05,05,06,21,19.30
2017,05,05,06,22,15.30
2017,05,05,06,23,15.90
2017,05,05,06,24,13.70
2017,05,05,06,25,16.50
2017,05,05,06,26,17.70
2017,05,05,06,27,22.30
2017,05,05,06,28,18.70
2017,05,05,06,29,24.60
2017,05,05,06,30,21.60
2017,05,05,06,31,15.40
2017,05,05,06,32,22.70
2017,05,05,06,33,27.20
2017,05,05,06,34,26.60
2017,05,05,06,35,25.40
2017,05,05,06,36,19.70
2017,05,05,06,37,22.50
2017,05,05,06,38,24.70
2017,05,05,06,39,24.00
2017,05,05,06,40,17.50
2017,05,05,06,41,21.70
2017,05,05,06,42,21.10
2017,05,05,06,43,20.50
2017,05,05,06,44,23.10
2017,05,05,06,45,21.70
2017,05,05,06,46,20.10
2017,05,05,06,47,24.70
2017,05,05,06,48,30.00
2017,05,05,06,49,30.40
2017,05,05,06,50,24.20
2017,05,05,06,51,21.70
2017,05,05,06,52,19.80
2017,05,05,06,53,19.70
2017,05,05,06,54,21.20
2017,05,05,06,55,26.00
2017,05,05,06,56,23.00
2017,05,05,06,57,23.10
2017,05,05,06,58,22.30
2017,05,05,06,59,25.70
2017,05,05,07,00,19.90
2017,05,05,07,01,17.00
2017,05,05,07,02,14.20
2017,05,05,07,03,15.40
2017,05,05,07,04,17.20
2017,05,05,07,05,17.90
2017,05,05,07,06,14.60
2017,05,05,07,07,17.80
2017,05,05,07,08,22.80
2017,05,05,07,09,19.00
2017,05,05,07,10,24.30
2017,05,05,07,11,22.30
2017,05,05,07,12,17.10
2017,05,05,07,13,23.20
2017,05,05,07,14,21.40
2017,05,05,07,15,25.60
2017,05,05,07,16,18.50
2017,05,05,07,17,25.80
2017,05,05,07,18,20.10
2017,05,05,07,19,17.70
2017,05,05,07,20,15.70
2017,05,05,07,21,16.70
2017,05,05,07,22,21.00
2017,05,05,07,23,16.70
2017,05,05,07,24,13.20
2017,05,05,07,25,11.80
2017,05,05,07,26,17.60
2017,05,05,07,27,12.90
2017,05,05,07,28,14.70
2017,05,05,07,29,13.20
2017,05,05,07,30,16.90
2017,05,05,07,31,21.30
2017,05,05,07,32,12.60
2017,05,05,07,33,10.80
2017,05,05,07,34,16.10
2017,05,05,07,35,16.80
2017,05,05,07,36,10.40
2017,05,05,07,37,14.60
2017,05,05,07,38,19.50
2017,05,05,07,39,12.10
2017,05,05,07,40,15.30
2017,05,05,07,41,14.20
2017,05,05,07,42,22.10
2017,05,05,07,43,20.40
2017,05,05,07,44,19.50
2017,05,05,07,45,19.60
2017,05,05,07,46,18.70
2017,05,05,07,47,18.50
2017,05,05,07,48,18.70
2017,05,05,07,49,13.40
2017,05,05,07,50,14.00
2017,05,05,07,51,14.30
2017,05,05,07,52,17.90
2017,05,05,07,53,21.00
2017,05,05,07,54,18.10
2017,05,05,07,55,13.90
2017,05,05,07,56,16.30
2017,05,05,07,57,13.60
2017,05,05,07,58,9.70
2017,05,05,07,59,9.50
2017,05,05,08,00,15.50
2017,05,05,08,01,9.80
2017,05,05,08,02,14.20
2017,05,05,08,03,16.30
2017,05,05,08,04,20.10
2017,05,05,08,05,15.70
2017,05,05,08,06,18.30
2017,05,05,08,07,21.50
2017,05,05,08,08,14.70
2017,05,05,08,09,15.20
2017,05,05,08,10,18.70
2017,05,05,08,11,21.70
2017,05,05,08,12,21.90
2017,05,05,08,13,16.90
2017,05,05,08,14,16.20
2017,05,05,08,15,24.10
2017,05,05,08,16,23.10
2017,05,05,08,17,18.50
2017,05,05,08,18,15.40
2017,05,05,08,19,12.50
2017,05,05,08,20,13.40
2017,05,05,08,21,13.40
2017,05,05,08,22,14.60
2017,05,05,08,23,14.90
2017,05,05,08,24,14.40
2017,05,05,08,25,14.00
2017,05,05,08,26,11.20
2017,05,05,08,27,8.30
2017,05,05,08,28,16.70
2017,05,05,08,29,12.80
2017,05,05,08,30,11.90
2017,05,05,08,31,11.20
2017,05,05,08,32,10.60
2017,05,05,08,33,11.30
2017,05,05,08,34,11.70
2017,05,05,08,35,12.90
2017,05,05,08,36,7.90
2017,05,05,08,37,7.40
2017,05,05,08,38,10.10
2017,05,05,08,39,7.50
2017,05,05,08,40,5.10
2017,05,05,08,41,6.50
2017,05,05,08,42,7.00
2017,05,05,08,43,9.60
2017,05,05,08,44,8.70
2017,05,05,08,45,10.60
2017,05,05,08,46,6.00
2017,05,05,08,47,2.80
2017,05,05,08,48,6.20
2017,05,05,08,49,4.70
2017,05,05,08,50,4.10
2017,05,05,08,51,4.70
2017,05,05,08,52,4.50
2017,05,05,08,53,6.10
2017,05,05,08,54,8.90
2017,05,05,08,55,13.90
2017,05,05,08,56,10.90
2017,05,05,08,57,12.00
2017,05,05,08,58,12.20
2017,05,05,08,59,7.50
2017,05,05,09,00,8.10
2017,05,05,09,01,9.20
2017,05,05,09,02,8.30
2017,05,05,09,03,8.70
2017,05,05,09,04,8.90
2017,05,05,09,05,9.20
2017,05,05,09,06,7.30
2017,05,05,09,07,9.70
2017,05,05,09,08,12.30
2017,05,05,09,09,3.60
2017,05,05,09,10,7.80
2017,05,05,09,11,9.80
2017,05,05,09,12,11.60
2017,05,05,09,13,12.00
2017,05,05,09,14,9.20
2017,05,05,09,15,9.20
2017,05,05,09,16,9.70
2017,05,05,09,17,3.90
2017,05,05,09,18,4.30
2017,05,05,09,19,5.10
2017,05,05,09,20,3.90
2017,05,05,09,21,1.50
2017,05,05,09,22,5.70
2017,05,05,09,23,8.10
2017,05,05,09,24,11.60
2017,05,05,09,25,11.40
2017,05,05,09,26,9.10
2017,05,05,09,27,7.60
2017,05,05,09,28,11.50
2017,05,05,09,29,18.70
2017,05,05,09,30,18.20
2017,05,05,09,31,16.90
2017,05,05,09,32,15.30
2017,05,05,09,33,15.50
2017,05,05,09,34,20.90
2017,05,05,09,35,13.20
2017,05,05,09,36,13.50
2017,05,05,09,37,7.20
2017,05,05,09,38,10.70
2017,05,05,09,39,16.30
2017,05,05,09,40,12.00
2017,05,05,09,41,9.30
2017,05,05,09,42,10.50
2017,05,05,09,43,17.60
2017,05,05,09,44,15.40
2017,05,05,09,45,24.20
2017,05,05,09,46,14.50
2017,05,05,09,47,14.50
2017,05,05,09,48,23.30
2017,05,05,09,49,15.60
2017,05,05,09,50,18.40
2017,05,05,09,51,23.70
2017,05,05,09,52,20.60
2017,05,05,09,53,18.60
2017,05,05,09,54,23.10
2017,05,05,09,55,20.40
2017,05,05,09,56,18.30
2017,05,05,09,57,14.30
2017,05,05,09,58,11.90
2017,05,05,09,59,19.50
2017,05,05,10,00,19.30
2017,05,05,10,01,15.00
2017,05,05,10,02,17.10
2017,05,05,10,03,14.70
2017,05,05,10,04,19.90
2017,05,05,10,05,17.90
2017,05,05,10,06,16.40
2017,05,05,10,07,19.50
2017,05,05,10,08,21.60
2017,05,05,10,09,21.30
2017,05,05,10,10,16.40
2017,05,05,10,11,18.50
2017,05,05,10,12,21.40
2017,05,05,10,13,19.10
2017,05,05,10,14,17.50
2017,05,05,10,15,11.80
2017,05,05,10,16,14.90
2017,05,05,10,17,12.30
2017,05,05,10,18,18.30
2017,05,05,10,19,20.40
2017,05,05,10,20,17.90
2017,05,05,10,21,18.60
2017,05,05,10,22,16.80
2017,05,05,10,23,15.00
2017,05,05,10,24,14.00
2017,05,05,10,25,12.10
2017,05,05,10,26,21.50
2017,05,05,10,27,19.60
2017,05,05,10,28,19.60
2017,05,05,10,29,10.60
2017,05,05,10,30,18.80
2017,05,05,10,31,17.20
2017,05,05,10,32,16.20
2017,05,05,10,33,13.00
2017,05,05,10,34,9.90
2017,05,05,10,35,11.30
2017,05,05,10,36,15.50
2017,05,05,10,37,19.00
2017,05,05,10,38,31.30
2017,05,05,10,39,26.60
2017,05,05,10,40,18.90
2017,05,05,10,41,16.00
2017,05,05,10,42,11.10
2017,05,05,10,43,18.20
2017,05,05,10,44,14.90
2017,05,05,10,45,22.90
2017,05,05,10,46,18.00
2017,05,05,10,47,33.90
2017,05,05,10,48,29.00
2017,05,05,10,49,32.60
2017,05,05,10,50,26.40
2017,05,05,10,51,24.30
2017,05,05,10,52,17.90
2017,05,05,10,53,9.20
2017,05,05,10,54,17.40
2017,05,05,10,55,19.80
2017,05,05,10,56,17.90
2017,05,05,10,57,20.50
2017,05,05,10,58,21.40
2017,05,05,10,59,18.70
2017,05,05,11,00,16.10
2017,05,05,11,01,15.10
2017,05,05,11,02,11.00
2017,05,05,11,03,7.70
2017,05,05,11,04,12.70
2017,05,05,11,05,9.30
2017,05,05,11,06,11.10
2017,05,05,11,07,7.80
2017,05,05,11,08,4.70
2017,05,05,11,09,7.90
2017,05,05,11,10,7.60
2017,05,05,11,11,8.40
2017,05,05,11,12,7.10
2017,05,05,11,13,4.00
2017,05,05,11,14,5.10
2017,05,05,11,15,11.20
2017,05,05,11,16,8.60
2017,05,05,11,17,7.80
2017,05,05,11,18,10.20
2017,05,05,11,19,17.20
2017,05,05,11,20,11.00
2017,05,05,11,21,16.50
2017,05,05,11,22,12.40
2017,05,05,11,23,12.70
2017,05,05,11,24,30.50
2017,05,05,11,25,22.40
2017,05,05,11,26,28.00
2017,05,05,11,27,21.20
2017,05,05,11,28,17.30
2017,05,05,11,29,19.20
2017,05,05,11,30,23.40
2017,05,05,11,31,20.50
2017,05,05,11,32,27.70
2017,05,05,11,33,22.20
2017,05,05,11,34,15.50
2017,05,05,11,35,20.00
2017,05,05,11,36,19.30
2017,05,05,11,37,19.40
2017,05,05,11,38,20.80
2017,05,05,11,39,13.20
2017,05,05,11,40,20.20
2017,05,05,11,41,17.60
2017,05,05,11,42,17.20
2017,05,05,11,43,11.90
2017,05,05,11,44,16.10
2017,05,05,11,45,15.10
2017,05,05,11,46,21.20
2017,05,05,11,47,24.40
2017,05,05,11,48,22.70
2017,05,05,11,49,25.00
2017,05,05,11,50,20.20
2017,05,05,11,51,26.60
2017,05,05,11,52,21.30
2017,05,05,11,53,20.20
2017,05,05,11,54,22.00
2017,05,05,11,55,21.60
2017,05,05,11,56,22.10
2017,05,05,11,57,15.80
2017,05,05,11,58,16.10
2017,05,05,11,59,19.60
2017,05,05,12,00,24.80
2017,05,05,12,01,15.40
2017,05,05,12,02,24.10
2017,05,05,12,03,20.20
2017,05,05,12,04,21.10
2017,05,05,12,05,16.80
2017,05,05,12,06,25.20
2017,05,05,12,07,27.10
2017,05,05,12,08,20.80
2017,05,05,12,09,22.10
2017,05,05,12,10,18.70
2017,05,05,12,11,19.70
2017,05,05,12,12,24.80
2017,05,05,12,13,26.30
2017,05,05,12,14,27.20
2017,05,05,12,15,31.60
2017,05,05,12,16,25.60
2017,05,05,12,17,22.80
2017,05,05,12,18,29.40
2017,05,05,12,19,28.60
2017,05,05,12,20,30.60
2017,05,05,12,21,31.50
2017,05,05,12,22,24.50
2017,05,05,12,23,21.90
2017,05,05,12,24,25.30
2017,05,05,12,25,25.90
2017,05,05,12,26,23.40
2017,05,05,12,27,30.00
2017,05,05,12,28,29.10
2017,05,05,12,29,22.90
2017,05,05,12,30,23.20
2017,05,05,12,31,20.60
2017,05,05,12,32,16.30
2017,05,05,12,33,14.30
2017,05,05,12,34,14.90
2017,05,05,12,35,16.50
2017,05,05,12,36,22.50
2017,05,05,12,37,21.80
2017,05,05,12,38,32.10
2017,05,05,12,39,25.10
2017,05,05,12,40,16.80
2017,05,05,12,41,17.00
2017,05,05,12,42,16.90
2017,05,05,12,43,17.70
2017,05,05,12,44,9.90
2017,05,05,12,45,11.90
2017,05,05,12,46,11.80
2017,05,05,12,47,17.00
2017,05,05,12,48,21.60
2017,05,05,12,49,14.60
2017,05,05,12,50,14.00
2017,05,05,12,51,10.60
2017,05,05,12,52,6.40
2017,05,05,12,53,10.90
2017,05,05,12,54,16.70
2017,05,05,12,55,18.90
2017,05,05,12,56,24.30
2017,05,05,12,57,18.40
2017,05,05,12,58,26.90
2017,05,05,12,59,18.80
2017,05,05,13,00,17.70
2017,05,05,13,01,27.20
2017,05,05,13,02,16.60
2017,05,05,13,03,22.00
2017,05,05,13,04,25.30
2017,05,05,13,05,25.50
2017,05,05,13,06,10.80
2017,05,05,13,07,9.30
2017,05,05,13,08,9.70
2017,05,05,13,09,7.20
2017,05,05,13,10,8.10
2017,05,05,13,11,4.90
2017,05,05,13,12,11.00
2017,05,05,13,13,12.50
2017,05,05,13,14,19.40
2017,05,05,13,15,13.20
2017,05,05,13,16,22.40
2017,05,05,13,17,20.30
2017,05,05,13,18,16.30
2017,05,05,13,19,20.20
2017,05,05,13,20,11.60
2017,05,05,13,21,17.10
2017,05,05,13,22,17.40
2017,05,05,13,23,13.60
2017,05,05,13,24,11.20
2017,05,05,13,25,8.20
2017,05,05,13,26,13.40
2017,05,05,13,27,22.30
2017,05,05,13,28,20.80
2017,05,05,13,29,23.30
2017,05,05,13,30,23.70
2017,05,05,13,31,25.50
2017,05,05,13,32,22.10
2017,05,05,13,33,29.90
2017,05,05,13,34,23.40
2017,05,05,13,35,20.80
2017,05,05,13,36,22.40
2017,05,05,13,37,20.80
2017,05,05,13,38,21.10
2017,05,05,13,39,24.30
2017,05,05,13,40,13.20
2017,05,05,13,41,13.40
2017,05,05,13,42,22.00
2017,05,05,13,43,22.50
2017,05,05,13,44,16.20
2017,05,05,13,45,22.30
2017,05,05,13,46,27.50
2017,05,05,13,47,27.30
2017,05,05,13,48,34.00
2017,05,05,13,49,34.50
2017,05,05,13,50,37.30
2017,05,05,13,51,31.70
2017,05,05,13,52,23.40
2017,05,05,13,53,17.50
2017,05,05,13,54,16.70
2017,05,05,13,55,32.80
2017,05,05,13,56,24.40
2017,05,05,13,57,24.20
2017,05,05,13,58,32.10
2017,05,05,13,59,31.50
2017,05,05,14,00,29.00
2017,05,05,14,01,23.50
2017,05,05,14,02,23.30
2017,05,05,14,03,32.30
2017,05,05,14,04,36.70
2017,05,05,14,05,31.90
2017,05,05,14,06,26.00
2017,05,05,14,07,27.30
2017,05,05,14,08,25.70
2017,05,05,14,09,35.00
2017,05,05,14,10,26.50
2017,05,05,14,11,22.30
2017,05,05,14,12,13.60
2017,05,05,14,13,24.10
2017,05,05,14,14,19.60
2017,05,05,14,15,26.60
2017,05,05,14,16,15.50
2017,05,05,14,17,21.80
2017,05,05,14,18,16.10
2017,05,05,14,19,15.50
2017,05,05,14,20,18.20
2017,05,05,14,21,22.90
2017,05,05,14,22,31.20
2017,05,05,14,23,34.00
2017,05,05,14,24,22.50
2017,05,05,14,25,26.70
2017,05,05,14,26,24.50
2017,05,05,14,27,25.10
2017,05,05,14,28,25.40
2017,05,05,14,29,21.20
2017,05,05,14,30,21.00
2017,05,05,14,31,26.00
2017,05,05,14,32,27.10
2017,05,05,14,33,15.00
2017,05,05,14,34,21.00
2017,05,05,14,35,19.60
2017,05,05,14,36,28.00
2017,05,05,14,37,19.50
2017,05,05,14,38,16.50
2017,05,05,14,39,21.00
2017,05,05,14,40,30.10
2017,05,05,14,41,34.20
2017,05,05,14,42,35.70
2017,05,05,14,43,28.00
2017,05,05,14,44,22.50
2017,05,05,14,45,26.70
2017,05,05,14,46,32.90
2017,05,05,14,47,24.70
2017,05,05,14,48,29.30
2017,05,05,14,49,22.90
2017,05,05,14,50,20.30
2017,05,05,14,51,17.20
2017,05,05,14,52,25.20
2017,05,05,14,53,23.80
2017,05,05,14,54,31.50
2017,05,05,14,55,34.30
2017,05,05,14,56,33.00
2017,05,05,14,57,31.90
2017,05,05,14,58,32.60
2017,05,05,14,59,32.80
2017,05,05,15,00,26.00
2017,05,05,15,01,30.80
2017,05,05,15,02,28.70
2017,05,05,15,03,24.50
2017,05,05,15,04,29.90
2017,05,05,15,05,32.20
2017,05,05,15,06,25.30
2017,05,05,15,07,21.30
2017,05,05,15,08,26.70
2017,05,05,15,09,30.70
2017,05,05,15,10,32.30
2017,05,05,15,11,29.90
2017,05,05,15,12,32.60
2017,05,05,15,13,27.60
2017,05,05,15,14,29.50
2017,05,05,15,15,33.20
2017,05,05,15,16,29.70
2017,05,05,15,17,32.50
2017,05,05,15,18,27.20
2017,05,05,15,19,23.00
2017,05,05,15,20,28.30
2017,05,05,15,21,31.60
2017,05,05,15,22,41.00
2017,05,05,15,23,28.30
2017,05,05,15,24,32.20
2017,05,05,15,25,19.60
2017,05,05,15,26,28.40
2017,05,05,15,27,27.40
2017,05,05,15,28,28.30
2017,05,05,15,29,29.80
2017,05,05,15,30,35.80
2017,05,05,15,31,27.20
2017,05,05,15,32,21.80
2017,05,05,15,33,30.10
2017,05,05,15,34,24.70
2017,05,05,15,35,25.10
2017,05,05,15,36,30.00
2017,05,05,15,37,34.50
2017,05,05,15,38,24.30
2017,05,05,15,39,24.60
2017,05,05,15,40,27.40
2017,05,05,15,41,29.70
2017,05,05,15,42,35.40
2017,05,05,15,43,29.00
2017,05,05,15,44,32.30
2017,05,05,15,45,31.80
2017,05,05,15,46,27.70
2017,05,05,15,47,19.40
2017,05,05,15,48,18.30
2017,05,05,15,49,28.60
2017,05,05,15,50,27.30
2017,05,05,15,51,29.20
2017,05,05,15,52,34.50
2017,05,05,15,53,32.30
2017,05,05,15,54,24.30
2017,05,05,15,55,32.90
2017,05,05,15,56,28.60
2017,05,05,15,57,23.70
2017,05,05,15,58,26.60
2017,05,05,15,59,31.00
2017,05,05,16,00,33.00
2017,05,05,16,01,29.40
2017,05,05,16,02,29.00
2017,05,05,16,03,21.00
2017,05,05,16,04,22.90
2017,05,05,16,05,23.00
2017,05,05,16,06,42.20
2017,05,05,16,07,43.80
2017,05,05,16,08,28.30
2017,05,05,16,09,30.80
2017,05,05,16,10,35.20
2017,05,05,16,11,23.30
2017,05,05,16,12,25.70
2017,05,05,16,13,22.10
2017,05,05,16,14,27.60
2017,05,05,16,15,28.30
2017,05,05,16,16,22.50
2017,05,05,16,17,27.70
2017,05,05,16,18,30.00
2017,05,05,16,19,20.30
2017,05,05,16,20,23.80
2017,05,05,16,21,30.00
2017,05,05,16,22,23.10
2017,05,05,16,23,38.20
2017,05,05,16,24,28.80
2017,05,05,16,25,25.80
2017,05,05,16,26,25.10
2017,05,05,16,27,29.40
2017,05,05,16,28,27.40
2017,05,05,16,29,19.60
2017,05,05,16,30,13.40
2017,05,05,16,31,27.30
2017,05,05,16,32,36.90
2017,05,05,16,33,33.10
2017,05,05,16,34,25.90
2017,05,05,16,35,34.00
2017,05,05,16,36,30.90
2017,05,05,16,37,30.70
2017,05,05,16,38,22.90
2017,05,05,16,39,29.20
2017,05,05,16,40,35.10
2017,05,05,16,41,29.50
2017,05,05,16,42,24.60
2017,05,05,16,43,33.50
2017,05,05,16,44,27.10
2017,05,05,16,45,25.50
2017,05,05,16,46,28.60
2017,05,05,16,47,27.60
2017,05,05,16,48,26.50
2017,05,05,16,49,14.70
2017,05,05,16,50,22.50
2017,05,05,16,51,27.50
2017,05,05,16,52,26.40
2017,05,05,16,53,36.80
2017,05,05,16,54,21.60
2017,05,05,16,55,26.70
2017,05,05,16,56,32.00
2017,05,05,16,57,32.70
2017,05,05,16,58,36.00
2017,05,05,16,59,27.50
2017,05,05,17,00,26.40
2017,05,05,17,01,26.80
2017,05,05,17,02,28.10
2017,05,05,17,03,34.30
2017,05,05,17,04,31.50
2017,05,05,17,05,27.40
2017,05,05,17,06,28.80
2017,05,05,17,07,19.20
2017,05,05,17,08,20.10
2017,05,05,17,09,24.90
2017,05,05,17,10,24.50
2017,05,05,17,11,27.10
2017,05,05,17,12,24.70
2017,05,05,17,13,15.50
2017,05,05,17,14,26.10
2017,05,05,17,15,24.40
2017,05,05,17,16,27.40
2017,05,05,17,17,19.30
2017,05,05,17,18,30.30
2017,05,05,17,19,39.20
2017,05,05,17,20,29.10
2017,05,05,17,21,31.10
2017,05,05,17,22,24.40
2017,05,05,17,23,29.90
2017,05,05,17,24,20.60
2017,05,05,17,25,23.20
2017,05,05,17,26,21.60
2017,05,05,17,27,28.10
2017,05,05,17,28,23.80
2017,05,05,17,29,27.60
2017,05,05,17,30,25.00
2017,05,05,17,31,29.60
2017,05,05,17,32,20.40